Location: Amsterdam
(30.7274°N, 84.4357°W)
Time: 05:18:07
(UTC+00:00)

MOZHAYETS 4 - Pass Details

Date: 15 March 2026
Orbit: 642 x 659 km, 98.3° (Epoch: 15 April)

Event Time Altitude Azimuth Distance (km) Brightness Sun altitude
Rises 00:44:20 0° 343° (NNW) 2,968 11.4 -13.5°
Reaches altitude 10° 00:48:44 10° 302° (WNW) 2,046 11.3 -14.4°
Maximum altitude 00:49:21 10° 294° (WNW) 2,027 11.4 -14.5°
Drops below altitude 10° 00:49:59 10° 286° (WNW) 2,043 11.6 -14.7°
Sets 00:54:21 0° 244° (WSW) 2,943 12.0 -15.6°
